Scottsbluff, NE

10:51 AM MDT on October 15, 2019 (GMT -0600)
Heilig

Weather History for KBFF - August, 2019

Change the Weather History Date:

Thursday, August 15, 2019

  Actual Average Record
Temperature  
Mean Temperature 73 °F -  
Max Temperature 86 °F 86 °F 105 °F (1929)
Min Temperature 60 °F 56 °F 44 °F (1942)
Cooling Degree Days 8    
Growing Degree Days 23 (Base 50)    
Moisture  
Dew Point 60 °F    
Average Humidity 77    
Maximum Humidity 97    
Minimum Humidity 43    
Precipitation  
Precipitation 0.24 in - - ()
Sea Level Pressure  
Sea Level Pressure 29.99 in    
Wind  
Wind Speed 11 mph (East)    
Max Wind Speed 28 mph    
Max Gust Speed 41 mph    
Visibility 9 miles    
Events Fog , Rain , Thunderstorm    
Averages and records for this station are not official NWS values.
T = Trace of Precipitation, MM = Missing Value Source: NWS Daily Summary

Daily Weather History Graph

Daily Weather History Graph

Search for Another Location

Airport or City:

Astronomy

Aug. 15, 2019 Rise Set
Actual Time 6:02 AM MDT 7:54 PM MDT
Civil Twilight 5:32 AM MDT 8:24 PM MDT
Nautical Twilight 4:55 AM MDT 9:01 PM MDT
Astronomical Twilight 4:16 AM MDT 9:40 PM MDT
Moon 8:24 PM MDT 5:58 AM MDT
Length of Visible Light 14h 52m
Length of Day
13h 52m
Full, 100% of the Moon is Illuminated
Aug 15
Full
Aug 23
Last Quarter
Aug 30
New
Sep 5
First Quarter
Sep 13
Full

Hourly Weather History & Observations

Time (MDT) Temp. Heat Index Dew Point Humidity Pressure Visibility Wind Dir Wind Speed Gust Speed Precip Events Conditions
12:53 AM 59.0 °F - 57.9 °F 96% 29.99 in 10.0 mi ESE 8.1 mph - N/A   Clear
1:53 AM 57.9 °F - 57.0 °F 97% 29.96 in 10.0 mi East 8.1 mph - N/A   Clear
2:53 AM 57.9 °F - 57.0 °F 97% 29.92 in 10.0 mi East 5.8 mph - N/A   Clear
3:53 AM 59.0 °F - 57.9 °F 96% 29.93 in 10.0 mi NE 16.1 mph 31.1 mph N/A   Partly Cloudy
4:03 AM 61.0 °F - 59.0 °F 93% 30.07 in 10.0 mi NE 16.1 mph 25.3 mph N/A   Scattered Clouds
4:18 AM 61.0 °F - 59.0 °F 93% 30.07 in 10.0 mi NE 18.4 mph 26.5 mph N/A   Mostly Cloudy
4:29 AM 61.0 °F - 57.9 °F 90% 30.07 in 10.0 mi ENE 19.6 mph 26.5 mph N/A   Mostly Cloudy
4:36 AM 60.1 °F - 57.9 °F 93% 30.07 in 10.0 mi ENE 18.4 mph 25.3 mph N/A   Mostly Cloudy
4:45 AM 60.1 °F - 57.9 °F 93% 30.06 in 10.0 mi ENE 17.3 mph - N/A   Scattered Clouds
4:53 AM 60.1 °F - 57.9 °F 93% 29.95 in 10.0 mi ENE 17.3 mph 25.3 mph N/A   Partly Cloudy
5:53 AM 61.0 °F - 57.9 °F 90% 29.98 in 10.0 mi East 13.8 mph - N/A   Overcast
6:53 AM 60.1 °F - 57.9 °F 93% 30.02 in 10.0 mi East 8.1 mph - N/A   Mostly Cloudy
7:04 AM 61.0 °F - 57.9 °F 90% 30.12 in 10.0 mi East 8.1 mph - N/A   Mostly Cloudy
7:41 AM 62.1 °F - 57.0 °F 84% 30.13 in 10.0 mi ESE 6.9 mph - N/A   Overcast
7:53 AM 62.1 °F - 57.0 °F 84% 30.03 in 10.0 mi SSE 9.2 mph - N/A   Overcast
8:20 AM 64.0 °F - 57.9 °F 80% 30.12 in 10.0 mi South 8.1 mph - N/A   Scattered Clouds
8:53 AM 66.9 °F - 57.9 °F 73% 30.00 in 10.0 mi SSE 9.2 mph - N/A   Clear
9:16 AM 66.0 °F - 60.1 °F 81% 30.10 in 10.0 mi SSW 11.5 mph - N/A   Mostly Cloudy
9:39 AM 70.0 °F - 60.1 °F 71% 30.10 in 10.0 mi SW 10.4 mph - N/A   Scattered Clouds
9:53 AM 69.1 °F - 60.1 °F 73% 29.99 in 10.0 mi SW 6.9 mph - N/A   Scattered Clouds
10:53 AM 73.0 °F - 61.0 °F 66% 29.98 in 10.0 mi WNW 6.9 mph - N/A   Mostly Cloudy
11:05 AM 73.9 °F - 61.0 °F 64% 30.09 in 10.0 mi West 8.1 mph - N/A   Scattered Clouds
11:53 AM 75.9 °F - 62.1 °F 62% 29.96 in 10.0 mi West 9.2 mph - N/A   Clear
12:53 PM 78.1 °F - 61.0 °F 56% 29.94 in 10.0 mi Variable 4.6 mph - N/A   Clear
1:53 PM 82.0 °F 82.4 °F 60.1 °F 47% 29.91 in 10.0 mi Variable 5.8 mph - N/A   Clear
2:53 PM 86.0 °F 86.1 °F 61.0 °F 43% 29.86 in 10.0 mi SE 13.8 mph - N/A   Clear
3:27 PM 81.0 °F 81.3 °F 59.0 °F 47% 29.97 in 10.0 mi ESE 15.0 mph - N/A Thunderstorm Clear
3:40 PM 79.0 °F - 59.0 °F 50% 29.97 in 10.0 mi ESE 12.7 mph 28.8 mph N/A Thunderstorm Thunderstorm
3:49 PM 66.2 °F - 60.8 °F 83% 30.09 in 0.8 mi WNW 27.6 mph 41.4 mph 0.03 in Rain , Thunderstorm Light Thunderstorms and Rain
3:53 PM 63.0 °F - 59.0 °F 87% 29.98 in 0.5 mi WSW 19.6 mph 41.4 mph 0.19 in Fog , Rain , Thunderstorm Heavy Thunderstorms and Rain
4:00 PM 66.0 °F - 60.1 °F 81% 30.02 in 3.0 mi ENE 12.7 mph 29.9 mph 0.06 in Rain , Thunderstorm Light Thunderstorms and Rain
4:15 PM 71.1 °F - 64.9 °F 81% 30.03 in 10.0 mi East 8.1 mph - 0.06 in Thunderstorm Thunderstorm
4:24 PM 75.0 °F - 68.0 °F 79% 30.03 in 10.0 mi ESE 8.1 mph - 0.06 in Thunderstorm Partly Cloudy
4:35 PM 75.0 °F - 64.0 °F 69% 30.03 in 10.0 mi ESE 15.0 mph 18.4 mph 0.06 in   Clear
4:53 PM 73.0 °F - 62.1 °F 68% 29.92 in 10.0 mi East 6.9 mph - 0.06 in   Clear
5:53 PM 75.0 °F - 62.1 °F 64% 29.91 in 10.0 mi ENE 5.8 mph - N/A   Clear
6:53 PM 75.0 °F - 61.0 °F 62% 29.90 in 10.0 mi ENE 8.1 mph - N/A   Clear
7:53 PM 68.0 °F - 60.1 °F 76% 29.92 in 10.0 mi East 5.8 mph - N/A   Clear
8:53 PM 64.9 °F - 60.1 °F 84% 29.93 in 10.0 mi ESE 5.8 mph - N/A   Clear
9:53 PM 63.0 °F - 59.0 °F 87% 29.93 in 10.0 mi East 3.5 mph - N/A   Clear
10:53 PM 62.1 °F - 57.9 °F 86% 29.92 in 10.0 mi ENE 3.5 mph - N/A   Clear
11:53 PM 62.1 °F - 57.9 °F 86% 29.88 in 10.0 mi East 8.1 mph - N/A   Clear